Location: Grisols
(45.0093°N, 3.1167°E)
Time: 00:42:45
(UTC+00:00)

Cosmos 2228 - Pass Details

Date: 21 October 2019
Orbit: 588 x 620 km, 82.5° (Epoch: 16 November)

Event Time Altitude Azimuth Distance (km) Brightness Sun altitude
Rises 17:36:42 0° 199° (SSW) 2,872 6.8 -8.4°
Reaches altitude 10° 17:38:57 10° 204° (SSW) 1,968 6.1 -8.8°
Maximum altitude 17:43:14 54° 282° (WNW) 747 3.9 -9.5°
Drops below altitude 10° 17:47:30 10° 360° (N) 1,965 5.6 -10.3°
Sets 17:49:45 0° 5° (N) 2,868 6.4 -10.7°
